User: anonymous   Login
Location: Rio Negrinho
(26.2394°S, 49.4999°W)
Time: 16:39:28
(UTC+00:00)
Language:

Cosmos 1371 Rocket - Orbit

View from above orbital plane
View from above orbital plane
View from above satellite
View from above satellite

Ground track
Ground track

The orbit data is extracted from the following two-line orbital elements,

1 13242U 82051B   20227.56097191 -.00000047  00000-0 -69634-5 0  9995
2 13242  74.0422  34.9087 0025633 310.9824  48.9111 14.35983844999303
Epoch (UTC): 14 August 2020 13:27:47
Eccentricity: 0.0025633
inclination: 74.0422°
perigee height: 753 km
apogee height: 790 km
right ascension of ascending node: 34.9087°
argument of perigee: 310.9824°
revolutions per day: 14.35983844
mean anomaly at epoch: 48.9111°
orbit number at epoch: 99930

The dashed part of the orbit path shows where the satellite is in the earth's shadow,  

DLR